Content
SEND FEEDBACK

Daily
Averages
Monthly
Summary
Canada

VANCOUVER, BRITISH COLUMBIA


Home > North America > Canada > British Columbia
Elevation: 7 feet     Latitude: 49 11N     Longitude: 123 10W

WEATHER
 
SELECT A DAY
Number of Records: 254,959;   Date Range: 5/15/97 - 12/20/14
 
SHARE

PRINT THIS DATA

[ ← Previous Day ]
WEATHER ALMANAC - APRIL 1, 2013
[ Next Day → ]
[ °C ]   °F
Weather ElementAverageHighLow
Temperature49.9 °F55.4 °F (3:35 pm)44.6 °F (1:15 am)
Dewpoint44.3 °F46.4 °F (10:55 am)39.2 °F (12:35 am)
Humidity81.4 %93 % (9:15 pm)71 % (12:35 am)
Barometer30.03 in30.10 in (11:55 pm)29.95 in (12:35 am)
Wind Speed8 mph13.8 mph (8:35 am)
Wind Gust21.9 mph (12:55 pm)
Weather ElementAverage
Visibility9.9 mi
Wind DirectionSSE (149 °)

Weather ElementTotal
Precipitation---
Heating Degree Days15 (Base 65)
Averaged from 68 records on April 1, 2013
WEATHER CONDITIONS BREAKOUT
WIND DIRECTION BREAKOUT
WEATHER BY HOUR - APRIL 1, 2013
[ °C ]   °F
Local TimeTemperatureDewpointHumidityBarometerVisibilityWind DirectionWind SpeedGust SpeedPrecipitationEventsConditions
12:35 AM48.2 °F39.2 °F71 %29.95 in10.0 miNorthClear
12:55 AM46.4 °F39.2 °F76 %29.95 in10.0 miNorthClear
1:15 AM44.6 °F39.2 °F81 %29.95 in10.0 miNorthClear
1:35 AM44.6 °F39.2 °F81 %29.95 in10.0 miCalmClear
1:55 AM44.6 °F39.2 °F81 %29.96 in10.0 miNorthClear
2:35 AM46.4 °F41.0 °F81 %29.96 in10.0 miSSE (150°)3.5 mphClear
2:55 AM46.4 °F41.0 °F81 %29.96 in10.0 miCalmClear
3:15 AM46.4 °F41.0 °F81 %29.97 in10.0 miSouth (180°)4.6 mphClear
3:35 AM46.4 °F41.0 °F81 %29.97 in10.0 miCalmClear
3:55 AM46.4 °F41.0 °F81 %29.97 in10.0 miCalmClear
4:15 AM44.6 °F41.0 °F87 %29.97 in10.0 miCalmClear
4:35 AM44.6 °F41.0 °F87 %29.97 in10.0 miCalmClear
4:55 AM46.4 °F41.0 °F81 %29.97 in10.0 miSouth (170°)3.5 mphClear
5:15 AM48.2 °F41.0 °F76 %29.97 in10.0 miSSE (160°)3.5 mphClear
5:35 AM48.2 °F41.0 °F76 %29.98 in10.0 miSouth (170°)4.6 mphClear
5:55 AM48.2 °F41.0 °F76 %29.98 in10.0 miSouth (180°)6.9 mphClear
6:15 AM48.2 °F41.0 °F76 %29.98 in10.0 miSouth (180°)5.8 mphClear
6:35 AM48.2 °F41.0 °F76 %29.99 in10.0 miCalmClear
6:55 AM46.4 °F41.0 °F81 %29.99 in10.0 miSSE (150°)3.5 mphClear
7:15 AM46.4 °F41.0 °F81 %29.99 in10.0 miSouth (170°)4.6 mphClear
7:55 AM48.2 °F42.8 °F82 %30.00 in10.0 miSouth (190°)11.5 mph16.1 mphClear
8:15 AM48.2 °F44.6 °F87 %30.01 in10.0 miSouth (190°)10.4 mphClear
8:35 AM48.2 °F44.6 °F87 %30.01 in10.0 miSSW (200°)13.8 mph17.3 mphClear
8:55 AM48.2 °F44.6 °F87 %30.02 in10.0 miSouth (190°)13.8 mphClear
9:15 AM48.2 °F44.6 °F87 %30.03 in10.0 miSouth (180°)9.2 mphClear
9:35 AM50.0 °F44.6 °F82 %30.03 in9.0 miSouth (180°)10.4 mph17.3 mphClear
9:55 AM50.0 °F44.6 °F82 %30.04 in9.0 miSouth (190°)13.8 mph17.3 mphClear
10:15 AM50.0 °F44.6 °F82 %30.04 in10.0 miSouth (190°)11.5 mph17.3 mphClear
10:35 AM50.0 °F44.6 °F82 %30.05 in10.0 miSouth (190°)12.7 mph18.4 mphClear
10:55 AM50.0 °F46.4 °F87 %30.05 in9.0 miSouth (190°)10.4 mph18.4 mphClear
11:15 AM50.0 °F46.4 °F87 %30.06 in10.0 miSouth (170°)9.2 mph17.3 mphClear
11:35 AM50.0 °F46.4 °F87 %30.06 in9.0 miSouth (180°)11.5 mph18.4 mphClear
11:55 AM50.0 °F46.4 °F87 %30.06 in10.0 miSouth (170°)8.1 mph17.3 mphClear
12:15 PM51.8 °F46.4 °F82 %30.06 in9.0 miSouth (180°)9.2 mph18.4 mphClear
12:35 PM51.8 °F46.4 °F82 %30.07 in10.0 miSouth (180°)11.5 mphClear
12:55 PM51.8 °F46.4 °F82 %30.07 in10.0 miSouth (190°)13.8 mph21.9 mphClear
1:15 PM50.0 °F46.4 °F87 %30.07 in10.0 miSouth (190°)10.4 mph21.9 mphScattered Clouds
1:35 PM50.0 °F46.4 °F87 %30.07 in10.0 miSouth (180°)9.2 mph16.1 mphMostly Cloudy
1:55 PM50.0 °F46.4 °F87 %30.07 in10.0 miSSE (160°)6.9 mphMostly Cloudy
2:15 PM51.8 °F46.4 °F82 %30.07 in10.0 miSouth (170°)8.1 mph17.3 mphMostly Cloudy
2:35 PM53.6 °F46.4 °F77 %30.06 in10.0 miSouth (170°)9.2 mph17.3 mphMostly Cloudy
2:55 PM53.6 °F46.4 °F77 %30.06 in10.0 miSouth (170°)10.4 mphScattered Clouds
3:15 PM53.6 °F46.4 °F77 %30.06 in10.0 miSouth (170°)8.1 mphClear
3:35 PM55.4 °F46.4 °F72 %30.06 in10.0 miSSE (160°)6.9 mphClear
3:55 PM55.4 °F46.4 °F72 %30.06 in10.0 miSouth (180°)6.9 mphClear
4:15 PM55.4 °F46.4 °F72 %30.05 in10.0 miSouth (180°)6.9 mphClear
4:35 PM55.4 °F46.4 °F72 %30.05 in10.0 miSouth (170°)9.2 mphClear
4:55 PM55.4 °F46.4 °F72 %30.05 in10.0 miSouth (170°)8.1 mphClear
5:15 PM55.4 °F46.4 °F72 %30.05 in10.0 miSouth (170°)8.1 mphClear
5:35 PM55.4 °F46.4 °F72 %30.05 in10.0 miSouth (170°)6.9 mphClear
5:55 PM55.4 °F46.4 °F72 %30.05 in10.0 miSouth (170°)9.2 mphClear
6:15 PM55.4 °F46.4 °F72 %30.05 in10.0 miSouth (170°)10.4 mph19.6 mphClear
6:35 PM53.6 °F46.4 °F77 %30.05 in10.0 miSouth (180°)9.2 mph17.3 mphClear
6:55 PM53.6 °F46.4 °F77 %30.05 in10.0 miSouth (180°)11.5 mph18.4 mphClear
7:15 PM53.6 °F46.4 °F77 %30.06 in10.0 miSouth (180°)9.2 mphClear
7:35 PM51.8 °F46.4 °F82 %30.06 in10.0 miSouth (170°)6.9 mphClear
7:55 PM51.8 °F46.4 °F82 %30.06 in10.0 miSouth (170°)6.9 mphClear
8:15 PM50.0 °F46.4 °F87 %30.06 in10.0 miSouth (180°)9.2 mphClear
8:35 PM50.0 °F46.4 °F87 %30.07 in10.0 miSouth (180°)10.4 mph17.3 mphClear
8:55 PM50.0 °F46.4 °F87 %30.07 in10.0 miSouth (190°)11.5 mphClear
9:15 PM48.2 °F46.4 °F93 %30.07 in10.0 miSouth (190°)13.8 mphClear
9:35 PM48.2 °F46.4 °F93 %30.08 in10.0 miSouth (180°)10.4 mphClear
9:55 PM50.0 °F46.4 °F87 %30.08 in10.0 miSouth (180°)9.2 mphClear
10:15 PM50.0 °F46.4 °F87 %30.09 in10.0 miSouth (190°)9.2 mphScattered Clouds
10:35 PM48.2 °F46.4 °F93 %30.09 in10.0 miSouth (190°)8.1 mphPartly Cloudy
11:15 PM48.2 °F44.6 °F87 %30.09 in10.0 miSouth (190°)9.2 mphClear
11:35 PM48.2 °F44.6 °F87 %30.09 in10.0 miSouth (190°)11.5 mphClear
11:55 PM48.2 °F44.6 °F87 %30.10 in10.0 miSouth (170°)9.2 mphClear
Hourly data recorded from CZBB, located miles away from Vancouver, British Columbia







STORIES FROM OUR PARTNERS